Weather Roundup
Issued by NWS Springfield, MO

Home | Current Version | Previous Version | Text Only | Print | Product List | Glossary On
Versions: 1 2 3 4 5 6 7 8 9 10 11 12 13 14 15 16 17 18 19 20 21 22 23 24 25 26 27 28 29 30 31 32 33 34 35 36 37 38 39 40 41 42 43 44 45 46 47 48 49 50
722
NZUS99 KSGF 261607
HRRSGF

HOURLY WEATHER
NATIONAL WEATHER SERVICE SPRINGFIELD MO
1100 AM CDT TUE SEP 26 2017

......SGF CWA......

CITY           SKY/WX    TMP DP  RH WIND       PRES   REMARKS
SPRINGFIELD    SUNNY     79  67  66 W7        30.04R
JOPLIN         PTSUNNY   73  68  84 NE6       30.05R
WEST PLAINS    SUNNY     84  62  47 SW7       30.05S
ROLLA          PTSUNNY   79  64  60 SW9       30.04R
OSAGE BEACH    SUNNY     78  66  66 W8        30.03R
BRANSON        MOSUNNY   81  64  57 SW5       30.05S

......SURROUNDING SGF CWA......

CITY           SKY/WX    TMP DP  RH WIND       PRES   REMARKS
CHANUTE        CLOUDY    71  65  81 N8        30.07R
PARSONS        LGT RAIN  69  67  93 CALM      30.06S
COFFEYVILLE    CLOUDY    71  66  84 NE6       30.05R
EMPORIA        CLOUDY    61  59  93 NW12      30.09R
GROVE OK       PTSUNNY   77  68  73 N3        30.04S
ROGERS AR      PTSUNNY   81  66  60 W8        30.05S
SILOAM SPRINGS SUNNY     81  67  62 S5        30.04S
HARRISON AR    PTSUNNY   83  61  47 W6        30.05R
NEAR YELLVILLE SUNNY     83  65  54 VRB5      30.02F

......KANSAS AND MISSOURI......

CITY           SKY/WX    TMP DP  RH WIND       PRES   REMARKS
KANSAS CTY INT DRIZZLE   63  62  97 NW10      30.07R
DOWNTOWN KC    CLOUDY    67  65  93 NW9       30.05R
COLUMBIA       PTSUNNY   78  67  68 W13       30.02R
SEDALIA        CLOUDY    77  66  68 NW6       30.04R
ST JOSEPH      CLOUDY    63  61  93 NW8       30.08R
ST LOUIS       MOSUNNY   87  64  46 SW10      30.01S
SPIRIT OF STL  SUNNY     86  66  51 SW6       29.99S
KIRKSVILLE     CLOUDY    74  67  78 NW6       30.02S
WICHITA        CLOUDY    59  56  89 N12       30.12R
TOPEKA         CLOUDY    62  61  96 NW9       30.09R
OLATHE         CLOUDY    69  66  90 N12       30.06R

......TENNESSEE......

CITY           SKY/WX    TMP DP  RH WIND       PRES   REMARKS
MEMPHIS        MOSUNNY   86  67  52 N5        30.02S
NASHVILLE      SUNNY     85  67  54 NE6       30.03F

......ARKANSAS.......

CITY           SKY/WX    TMP DP  RH WIND       PRES   REMARKS
FAYETTEVILLE   SUNNY     80  68  66 S6        30.03S
FT SMITH       SUNNY     84  67  56 VRB6      30.00R
LITTLE ROCK    MOSUNNY   82  69  64 VRB5      30.01R

......OKLAHOMA.......

CITY           SKY/WX    TMP DP  RH WIND       PRES   REMARKS
TULSA          CLOUDY    71  70  96 N10       30.02S
PONCA CITY     RAIN      64  60  87 N12       30.07R FOG
MCALESTER      MOSUNNY   82  67  60 CALM      30.00R
OKLAHOMA CITY  RAIN      66  65  96 N12       30.03R FOG

......IOWA............

CITY           SKY/WX    TMP DP  RH WIND       PRES   REMARKS
DES MOINES     CLOUDY    64  61  90 NW13      30.02R
QUAD CITIES    CLOUDY    79  67  66 SW8       29.95R

......ILLINOIS........

CITY           SKY/WX    TMP DP  RH WIND       PRES   REMARKS
QUINCY         MOSUNNY   79  64  60 SW8       29.99R
CHICAGO        MOSUNNY   86  63  45 S7        29.95S




USA.gov is the U.S. government's official web portal to all federal, state and local government web resources and services.